Knoxville, TN

1:56 AM EST on January 21, 2018 (GMT -0500)
McGhee Tyson

Weather History for KTYS - February, 2014

Change the Weather History Date:

Friday, February 21, 2014

  Actual Average Record
Temperature  
Mean Temperature 55 °F 44 °F  
Max Temperature 70 °F 54 °F 75 °F (1922)
Min Temperature 39 °F 34 °F 5 °F (1896)
Degree Days  
Heating Degree Days 10 21  
Month to date heating degree days 487 494  
Since 1 July heating degree days 2876 2756  
Cooling Degree Days 0 0  
Month to date cooling degree days 0 0  
Year to date cooling degree days 0 0  
Moisture  
Dew Point 39 °F    
Average Humidity 60    
Maximum Humidity 93    
Minimum Humidity 26    
Precipitation  
Precipitation 1.37 in 0.15 in 1.76 in (1891)
Month to date precipitation 4.95 3.19  
Year to date precipitation 8.07 7.51  
Snow  
Snow 0.00 in 0.00 in - ()
Month to date snowfall 6.9 1.3  
Since 1 July snowfall 11.9 4.8  
Snow Depth 0.00 in    
Sea Level Pressure  
Sea Level Pressure 29.92 in    
Wind  
Wind Speed 13 mph (SW)    
Max Wind Speed 46 mph    
Max Gust Speed 63 mph    
Visibility 8 miles    
Events Fog , Rain , Thunderstorm    
T = Trace of Precipitation, MM = Missing Value Source: NWS Daily Summary

Daily Weather History Graph

Daily Weather History Graph

Search for Another Location

Airport or City:

Trip Planner

Search our weather history database for the weather conditions in past years. The results will help you decide how hot, cold, wet, or windy it might be!

Date:

Astronomy

Feb. 21, 2014 Rise Set
Actual Time 7:16 AM EST 6:23 PM EST
Civil Twilight 6:50 AM EST 6:49 PM EST
Nautical Twilight 6:20 AM EST 7:19 PM EST
Astronomical Twilight 5:50 AM EST 7:48 PM EST
Moon 12:03 AM EST 10:52 AM EST
Length of Visible Light 11h 59m
Length of Day
11h 07m
Waning Gibbous, 61% of the Moon is Illuminated
Feb 21
Waning Gibbous
Feb 22
Last Quarter
Mar 1
New
Mar 8
First Quarter
Mar 16
Full

Hourly Weather History & Observations

Time (EST) Temp. Windchill Dew Point Humidity Pressure Visibility Wind Dir Wind Speed Gust Speed Precip Events Conditions
12:53 AM 69.1 °F - 53.1 °F 57% 29.70 in 10.0 mi SSW 19.6 mph 28.8 mph N/A   Overcast
1:48 AM 68.0 °F - 55.4 °F 64% 29.74 in 10.0 mi SSW 26.5 mph 41.4 mph 0.00 in Rain , Thunderstorm Light Thunderstorms and Rain
1:53 AM 68.0 °F - 55.0 °F 63% 29.73 in 10.0 mi SW 27.6 mph 44.9 mph 0.00 in Rain , Thunderstorm Light Rain
2:04 AM 61.0 °F - 55.0 °F 81% 29.79 in 9.0 mi WSW 34.5 mph 44.9 mph 0.00 in Rain , Thunderstorm Thunderstorms and Rain
2:06 AM 59.0 °F - 55.0 °F 87% 29.79 in 0.2 mi WSW 46.0 mph 55.2 mph N/A Fog , Rain , Thunderstorm Heavy Thunderstorms and Rain
2:07 AM 57.9 °F - 55.0 °F 90% 29.79 in 0.2 mi WSW 43.7 mph 55.2 mph N/A Fog , Rain , Thunderstorm Heavy Thunderstorms and Rain
2:22 AM 55.9 °F - 55.9 °F 100% 29.77 in 1.2 mi SW 20.7 mph 36.8 mph 0.43 in Rain , Thunderstorm Heavy Thunderstorms and Rain
2:23 AM 55.9 °F - 55.9 °F 100% 29.77 in 3.0 mi SW 21.9 mph 36.8 mph 0.44 in Rain , Thunderstorm Thunderstorms and Rain
2:26 AM 55.9 °F - 55.9 °F 100% 29.76 in 3.0 mi SW 20.7 mph 32.2 mph 0.46 in Rain , Thunderstorm Rain
2:32 AM 57.0 °F - 55.9 °F 96% 29.77 in 1.2 mi SSW 24.2 mph 29.9 mph 0.46 in Rain , Thunderstorm Heavy Rain
2:40 AM 57.0 °F - 55.9 °F 96% 29.78 in 1.2 mi SW 27.6 mph 32.2 mph 0.60 in Rain , Thunderstorm Heavy Thunderstorms and Rain
2:53 AM 57.9 °F - 55.9 °F 93% 29.74 in 2.0 mi SW 29.9 mph 40.3 mph 0.75 in Rain , Thunderstorm Heavy Thunderstorms and Rain
3:53 AM 57.0 °F - 55.9 °F 96% 29.76 in 2.0 mi SW 23.0 mph 28.8 mph 0.37 in Rain , Thunderstorm Heavy Thunderstorms and Rain
3:59 AM 54.0 °F - 52.0 °F 93% 29.79 in 4.0 mi West 29.9 mph 42.6 mph 0.04 in Rain , Thunderstorm Rain
4:12 AM 52.0 °F - 50.0 °F 93% 29.79 in 6.0 mi West 20.7 mph 31.1 mph 0.08 in Rain Rain
4:53 AM 50.0 °F - 46.9 °F 89% 29.83 in 5.0 mi West 23.0 mph 32.2 mph 0.14 in Rain Rain
5:53 AM 44.1 °F 37.1 °F 41.0 °F 89% 29.90 in 6.0 mi WSW 15.0 mph 23.0 mph 0.11 in Rain Light Rain
6:53 AM 42.1 °F 34.5 °F 39.0 °F 89% 29.99 in 10.0 mi WSW 15.0 mph - 0.00 in Rain Light Rain
7:53 AM 42.1 °F 38.4 °F 39.0 °F 89% 30.01 in 10.0 mi SSW 5.8 mph - 0.00 in   Overcast
8:53 AM 43.0 °F 38.8 °F 39.9 °F 89% 30.03 in 10.0 mi SSE 6.9 mph - N/A   Mostly Cloudy
9:53 AM 46.9 °F - 36.0 °F 66% 30.02 in 10.0 mi SSW 8.1 mph - N/A   Scattered Clouds
10:53 AM 48.9 °F - 28.9 °F 46% 30.02 in 10.0 mi WSW 17.3 mph 20.7 mph N/A   Scattered Clouds
11:53 AM 50.0 °F - 30.9 °F 48% 30.02 in 10.0 mi WSW 11.5 mph - N/A   Scattered Clouds
12:53 PM 52.0 °F - 30.9 °F 45% 29.99 in 10.0 mi SW 10.4 mph - N/A   Scattered Clouds
1:53 PM 53.1 °F - 30.0 °F 41% 29.99 in 10.0 mi WSW 10.4 mph - N/A   Scattered Clouds
2:53 PM 54.0 °F - 23.0 °F 30% 29.98 in 10.0 mi West 10.4 mph - N/A   Partly Cloudy
3:53 PM 54.0 °F - 23.0 °F 30% 29.99 in 10.0 mi WSW 19.6 mph - N/A   Clear
4:53 PM 54.0 °F - 19.0 °F 25% 30.01 in 10.0 mi SW 11.5 mph - N/A   Clear
5:53 PM 52.0 °F - 21.0 °F 30% 30.03 in 10.0 mi WSW 12.7 mph - N/A   Clear
6:53 PM 48.0 °F - 21.9 °F 36% 30.06 in 10.0 mi WSW 10.4 mph - N/A   Clear
7:53 PM 46.9 °F - 21.0 °F 36% 30.07 in 10.0 mi West 9.2 mph - N/A   Clear
8:53 PM 44.1 °F 40.8 °F 21.0 °F 40% 30.08 in 10.0 mi West 5.8 mph - N/A   Clear
9:53 PM 43.0 °F 40.3 °F 21.9 °F 43% 30.09 in 10.0 mi South 4.6 mph - N/A   Clear
10:53 PM 42.1 °F 38.4 °F 23.0 °F 47% 30.10 in 10.0 mi SSW 5.8 mph - N/A   Clear
11:53 PM 39.9 °F 35.8 °F 23.0 °F 51% 30.12 in 10.0 mi WSW 5.8 mph - N/A   Mostly Cloudy